Theta_e
341 341 342 344 345 344 344 343 342 343 343 343 343 344 345 345 345 345 344 345 345 344 343 340 338 338 338 338 335 333 333 332 332 334 335 337 339 338 337 337 336 336 338 338 339 340 340 339 337 337 337 337 337 337 337 337 336 336 334 333 333 332 332 332 332 334 335 335 336 336 335 334 333 331 331 331 331 332 333 334 335 335 335 334 334
341 342 343 345 344 344 344 343 343 343 344 344 343 343 343 344 345 344 343 343 344 344 343 341 338 338 338 338 337 334 332 330 330 334 335 336 338 338 338 338 338 336 336 338 338 339 340 340 338 337 337 336 337 337 337 337 337 337 336 334 334 333 333 333 332 332 332 334 335 335 335 335 334 333 332 332 332 333 333 333 334 334 334 334 334
341 342 344 346 345 344 344 343 344 344 344 344 343 343 343 343 343 343 342 342 342 343 343 341 338 338 338 337 337 334 332 330 331 335 337 336 337 337 337 338 337 336 337 338 338 338 339 340 340 338 338 337 337 338 337 337 337 337 336 335 335 334 334 334 333 333 333 333 334 334 334 335 335 334 333 333 333 333 333 333 333 333 334 333 333
340 342 344 346 346 345 345 345 345 344 344 344 345 344 342 342 342 342 342 342 342 342 343 340 338 338 338 337 336 335 334 332 333 337 337 337 337 337 337 337 337 336 338 339 338 339 338 339 340 340 339 339 339 338 338 337 337 337 336 336 336 335 335 334 334 333 333 333 333 333 334 335 335 335 334 334 333 333 333 334 334 334 334 334 333
340 343 345 346 347 345 345 345 345 344 344 344 345 344 343 341 341 341 341 342 342 342 343 341 339 339 339 338 337 337 335 333 335 337 338 337 338 338 337 337 337 336 338 338 337 338 338 338 339 339 339 340 340 339 338 337 337 337 337 337 337 336 336 335 334 333 333 332 333 333 333 334 334 335 335 335 334 333 333 334 334 334 334 334 334
340 344 346 346 346 345 344 344 344 344 343 343 344 345 344 342 340 340 340 342 343 343 343 343 341 340 339 336 336 337 334 333 335 336 338 338 337 338 338 337 337 336 337 337 336 336 338 339 339 339 339 340 340 340 340 339 338 338 337 337 338 337 337 336 335 335 334 333 333 334 333 332 332 333 333 333 334 334 334 334 334 334 334 334 334
340 343 346 346 346 345 345 345 345 344 343 342 342 344 344 341 340 339 341 342 343 343 344 343 341 340 339 335 336 337 333 332 335 336 337 338 337 338 338 337 337 336 337 337 335 334 336 338 338 338 339 340 341 341 340 340 340 339 338 338 337 337 337 337 336 336 336 335 334 335 335 334 333 333 332 332 332 332 332 332 333 333 333 334 334
342 343 344 345 345 345 345 346 346 345 343 342 341 343 343 341 341 341 341 342 342 344 344 343 342 339 338 336 336 337 333 331 335 337 337 337 337 337 337 337 336 336 337 336 336 335 334 335 336 337 338 339 340 340 340 340 340 339 338 338 338 337 337 337 337 336 337 336 336 336 336 336 335 335 335 334 334 333 332 331 331 331 331 332 332
344 344 344 345 346 346 347 347 346 346 345 343 341 342 343 342 342 342 342 342 343 344 344 344 343 341 339 336 336 336 332 330 335 337 337 337 336 336 335 335 335 336 337 337 337 337 336 335 334 335 335 336 338 339 340 340 340 340 339 337 338 338 338 337 337 337 337 338 337 336 336 336 336 336 336 336 336 336 335 334 334 333 332 332 332
346 346 346 347 348 348 348 348 347 346 346 345 343 341 342 342 342 342 343 343 343 345 344 344 344 342 340 337 337 336 330 330 335 336 336 338 336 334 333 333 334 335 335 335 335 336 338 337 334 335 335 336 337 338 339 341 340 340 339 338 338 339 338 338 338 338 338 338 338 337 337 337 337 337 337 337 337 336 337 337 337 336 336 335 335
347 348 348 348 348 348 349 348 347 347 346 346 343 341 341 342 342 343 344 343 344 344 344 344 344 343 341 338 337 335 330 331 335 335 335 338 337 335 334 331 331 332 332 331 332 333 337 338 336 337 338 338 338 338 338 339 339 339 339 338 338 338 338 338 338 339 338 338 338 338 338 338 338 338 337 337 337 337 337 338 338 337 337 337 337
348 348 349 348 348 348 349 348 347 346 346 345 343 342 342 342 343 344 343 344 344 344 344 343 340 338 337 337 337 333 330 333 336 335 334 337 337 336 335 332 330 331 330 329 329 329 332 335 336 335 336 337 338 338 338 338 338 339 338 339 339 339 339 339 339 339 339 338 338 338 338 338 338 338 338 338 338 338 338 338 338 337 337 337 338
348 348 348 347 348 349 349 347 346 346 346 345 343 342 342 342 342 343 343 343 344 344 343 336 331 331 334 336 335 331 331 335 336 333 333 337 337 335 335 332 330 329 327 326 326 326 328 330 332 332 333 334 335 336 337 337 338 337 337 337 338 338 338 338 338 339 339 339 338 338 338 338 338 338 338 338 338 338 337 337 337 337 337 337 337
347 347 347 347 348 349 348 347 347 347 346 345 343 342 342 342 341 342 343 343 344 344 338 331 331 334 336 336 335 333 333 335 335 333 334 337 336 335 334 332 330 327 324 324 325 325 326 326 326 327 328 329 332 333 334 334 336 337 336 336 337 337 337 336 337 337 338 338 338 338 337 338 338 338 338 339 338 338 337 337 337 337 338 337 337
345 345 345 346 348 349 348 348 348 348 347 344 343 342 342 341 340 341 343 343 345 343 334 331 334 335 335 337 338 337 336 336 335 334 336 337 335 334 334 332 330 327 324 325 327 328 328 328 327 326 325 325 327 330 331 332 333 333 333 334 334 333 332 333 333 335 336 336 336 336 335 335 334 334 336 336 335 335 335 335 336 336 337 337 337
343 343 344 345 347 349 349 349 349 349 348 345 343 342 340 340 339 340 342 343 345 342 332 330 332 334 336 337 337 337 338 339 337 336 337 337 335 334 334 332 330 329 327 327 329 329 329 330 329 329 328 326 325 326 328 330 329 326 326 326 326 325 324 324 326 329 331 330 330 329 328 328 327 327 328 328 328 328 329 330 331 332 334 334 334
341 342 342 343 346 349 350 350 350 350 348 345 343 342 340 339 337 338 341 342 345 341 332 329 331 332 335 336 336 337 338 339 338 337 337 337 336 334 333 332 331 330 329 329 330 330 330 330 329 329 329 327 325 325 326 326 324 322 321 321 320 319 319 319 319 321 322 321 321 321 321 320 321 321 321 321 321 321 321 321 322 323 324 325 326
341 341 342 342 344 348 350 350 350 350 349 346 344 342 341 339 337 338 340 342 345 342 333 329 332 332 332 333 335 337 338 337 338 338 337 337 337 336 334 333 332 331 330 331 331 331 330 329 329 329 330 328 326 325 324 324 323 323 323 322 321 320 319 318 317 316 316 317 317 317 317 317 317 317 317 317 317 317 317 316 316 316 317 317 318
341 342 342 342 343 346 349 350 350 350 349 347 345 343 342 341 339 339 340 342 344 343 334 329 331 333 332 332 332 336 337 337 338 339 338 337 336 336 335 333 333 332 331 331 331 331 331 330 329 328 329 329 328 326 326 326 326 326 326 325 325 324 324 322 320 318 316 315 315 315 315 315 316 315 315 315 315 315 315 315 315 315 315 315 315
340 341 342 342 343 345 348 349 350 350 349 347 345 342 342 341 340 339 341 342 343 343 337 330 331 334 333 333 334 335 336 336 337 337 338 338 337 336 336 334 334 333 332 331 331 331 331 331 330 328 328 329 329 328 327 327 327 327 327 327 327 327 327 327 326 324 321 319 318 318 319 319 318 318 317 317 317 316 316 316 316 316 316 316 316
339 340 340 342 343 344 346 348 348 349 349 347 345 342 340 340 340 340 341 343 342 342 338 330 330 334 333 334 336 336 336 336 335 335 337 338 338 337 336 335 334 334 333 332 331 332 331 331 331 329 328 328 329 328 328 328 328 327 328 328 328 328 328 328 328 328 327 326 325 324 325 324 323 322 322 321 321 320 320 320 319 319 319 319 318
337 338 339 341 341 342 344 345 346 347 348 348 345 342 339 339 340 341 342 342 341 341 338 331 329 332 332 334 336 336 336 335 334 334 334 335 336 337 337 336 335 335 334 334 333 332 332 331 331 331 329 328 328 328 328 328 328 328 328 328 328 328 328 328 328 328 328 327 327 327 327 326 326 324 324 323 323 323 322 322 322 321 321 320 320
336 337 338 340 340 340 341 343 344 345 346 347 346 343 340 339 340 342 341 340 340 339 337 333 329 330 331 333 335 336 336 335 334 333 334 336 337 337 337 336 336 336 335 335 334 333 332 332 332 331 331 330 328 328 328 328 328 328 328 328 328 328 328 328 328 327 327 327 327 326 326 325 325 324 324 323 323 323 323 322 322 322 322 322 322
337 337 338 340 340 340 340 341 343 344 346 347 346 344 342 340 341 342 341 339 338 337 335 332 330 329 330 331 333 336 336 335 335 335 335 337 338 338 337 336 336 335 334 334 335 334 334 333 332 332 332 332 330 329 328 328 328 328 328 328 328 328 328 327 327 327 327 327 327 327 326 326 325 325 324 324 323 322 322 322 322 321 321 321 322
337 338 338 339 340 341 340 341 342 343 345 346 346 345 342 341 341 341 341 339 336 335 333 331 330 329 329 329 330 334 335 334 335 336 336 335 336 337 337 334 335 334 333 333 333 333 333 333 332 332 332 332 332 331 330 329 329 329 328 328 328 328 328 328 328 327 327 327 327 327 326 326 325 325 325 325 325 324 323 322 322 322 322 322 321
338 338 339 340 340 340 340 340 342 344 346 347 346 346 344 342 341 342 341 339 335 334 332 331 329 328 327 327 327 330 332 333 334 335 336 336 336 336 335 333 334 334 333 333 332 332 333 332 332 332 332 332 332 332 330 329 329 329 329 329 328 328 328 328 328 328 327 327 327 327 326 326 325 325 325 326 325 325 324 324 323 323 323 323 323
339 339 340 340 340 341 340 341 343 345 346 346 347 347 346 344 343 342 341 338 335 333 331 329 327 325 323 324 325 326 328 330 332 333 335 336 336 336 335 335 335 335 334 333 332 332 332 332 331 331 331 331 332 331 331 329 329 329 329 329 329 328 329 329 329 328 327 327 326 326 326 326 326 326 326 326 326 326 326 326 325 324 324 324 324
340 340 341 341 342 342 342 341 343 345 346 346 347 347 347 346 344 342 341 338 334 331 329 327 324 322 320 319 321 322 324 326 329 331 332 333 335 335 335 335 336 336 335 334 333 333 332 332 332 331 330 330 330 330 330 330 329 329 329 329 329 329 329 329 328 327 326 325 325 325 325 325 325 325 325 325 325 326 326 327 326 326 325 324 324
341 341 341 342 343 342 342 342 343 345 345 346 347 347 347 347 345 343 341 337 333 330 327 325 324 322 320 318 317 318 320 322 326 329 331 332 333 335 334 335 335 335 336 335 335 334 333 332 332 331 329 328 327 328 329 329 329 328 328 328 328 328 328 326 325 324 325 325 325 325 325 325 326 326 326 325 324 324 325 326 327 327 326 325 324
341 341 341 342 343 343 343 342 342 344 345 345 346 347 347 347 345 343 341 338 334 330 326 324 324 322 320 318 316 316 317 320 323 327 330 331 333 334 334 334 334 334 334 335 335 335 333 333 332 331 330 327 326 327 328 328 327 326 326 326 326 325 325 324 324 324 325 326 326 325 325 326 327 327 327 327 326 325 324 325 326 326 327 327 326
341 340 341 342 343 343 342 342 342 344 345 344 345 346 346 346 345 343 341 337 335 331 326 324 324 322 321 318 317 316 316 318 321 324 328 331 332 333 333 334 334 334 334 334 335 335 334 333 332 331 330 328 327 327 327 327 326 326 326 326 326 326 326 326 326 326 326 326 326 327 327 327 328 328 328 328 327 326 325 324 325 326 326 326 326
342 341 341 341 342 343 342 341 342 343 344 344 344 345 345 345 344 342 341 338 336 333 329 326 323 322 322 320 318 318 317 317 320 323 327 328 330 331 332 334 335 334 334 333 334 335 333 332 331 331 330 329 327 327 327 327 327 327 327 328 328 328 328 328 327 327 327 326 326 326 326 327 327 327 327 327 328 327 325 324 325 325 325 324 323
343 343 342 341 341 342 343 342 342 343 344 344 343 344 344 344 343 342 341 339 336 335 332 328 325 323 322 321 320 320 319 318 319 322 326 327 327 328 330 332 333 334 334 333 334 334 333 330 328 330 330 329 328 328 328 328 328 328 328 329 329 329 329 328 328 327 326 325 325 325 325 325 326 325 326 327 328 327 325 324 324 324 323 323 322
344 344 343 341 341 341 342 342 342 342 343 343 343 344 343 342 342 341 340 339 337 335 333 330 326 324 323 321 321 321 321 321 320 320 323 325 326 326 327 329 331 332 333 333 333 334 333 329 326 329 331 330 329 329 329 329 329 329 329 329 329 329 329 329 328 327 326 324 323 323 324 324 324 324 325 327 327 327 326 325 325 324 324 324 323
345 345 343 342 341 340 341 342 342 342 342 342 343 343 342 342 342 341 340 339 338 335 333 330 327 325 324 322 322 322 323 323 322 321 321 323 325 325 326 328 330 331 332 333 333 333 332 329 326 328 331 330 330 330 330 330 330 330 330 329 329 329 329 329 328 327 325 324 323 323 324 323 323 323 324 326 327 327 326 326 326 326 325 325 325
345 345 344 344 342 341 340 341 342 342 342 342 342 343 342 341 341 341 339 338 337 336 334 331 328 326 324 322 322 322 323 325 325 323 322 322 323 325 326 328 330 332 332 333 332 331 330 330 327 327 329 330 331 331 330 330 330 330 330 330 329 329 329 328 328 326 325 324 324 324 323 321 320 320 321 323 325 326 326 327 326 325 325 325 325
346 345 345 345 344 342 340 340 341 341 342 342 342 342 342 341 340 340 340 339 337 337 335 333 331 327 323 322 322 323 324 325 326 325 324 323 323 324 326 328 330 332 333 332 332 331 330 330 329 328 329 330 331 331 331 331 331 330 330 330 329 329 329 328 327 325 325 324 324 323 321 319 318 318 319 320 321 323 324 324 324 324 324 323 323
346 346 346 345 344 342 340 339 339 340 340 341 341 342 342 341 339 339 340 340 339 337 336 335 334 331 325 322 322 323 324 324 324 324 325 325 324 324 326 328 330 332 333 332 332 332 332 331 329 328 329 330 331 331 331 331 331 331 330 330 329 328 328 328 327 326 325 325 324 321 319 318 317 318 319 320 321 322 322 323 323 322 322 322 321
347 347 347 346 344 343 341 339 338 339 339 340 340 341 342 342 340 339 339 340 340 339 337 336 336 335 331 325 323 323 323 323 322 322 323 324 325 325 326 328 330 332 333 332 332 332 332 331 329 327 329 331 332 332 332 332 332 332 331 330 329 329 328 327 326 325 325 324 322 320 318 318 318 318 319 320 321 321 322 322 321 320 320 319 318
347 347 347 347 345 344 343 341 339 338 338 339 339 340 342 342 341 340 339 339 340 340 338 337 336 336 335 331 327 324 322 321 321 321 322 322 322 323 325 328 330 332 333 333 332 332 332 331 331 330 330 331 332 333 333 333 333 332 331 330 330 329 328 326 325 325 324 322 320 318 318 319 319 318 318 318 318 318 318 318 317 317 317 317 317
348 348 348 348 347 345 345 343 341 339 337 337 337 338 340 341 341 341 339 339 339 339 339 338 336 336 337 336 332 326 323 322 321 321 322 322 322 322 323 326 329 331 333 333 332 332 332 331 332 331 331 331 332 333 333 333 333 332 331 330 329 328 327 326 325 324 322 319 318 318 318 319 318 318 317 316 316 316 315 315 316 317 318 318 318
348 349 348 349 348 348 346 344 342 340 338 336 336 337 339 340 341 341 340 339 338 339 340 339 337 337 337 338 336 331 329 326 322 323 324 323 323 323 322 323 326 328 331 332 332 332 332 331 331 332 332 333 333 333 333 333 332 332 331 330 329 329 328 326 324 322 321 320 319 318 318 317 317 316 316 316 315 315 315 316 317 318 318 319 319
349 349 349 349 349 349 347 345 343 341 338 336 335 336 338 339 341 341 341 341 339 339 340 340 339 337 338 339 339 337 336 330 323 324 327 325 324 324 323 323 324 327 330 332 332 332 332 331 331 332 332 334 333 332 333 333 332 331 330 330 329 329 327 324 322 323 323 321 318 317 317 316 316 315 315 315 314 314 315 317 317 317 318 318 318
349 349 349 350 349 349 348 345 343 340 338 336 335 336 337 338 340 341 342 342 342 340 340 340 340 338 338 339 339 340 339 332 325 324 326 326 325 325 324 324 324 326 329 331 332 332 331 331 331 332 332 334 334 333 333 332 331 330 330 329 328 327 324 321 322 323 323 319 317 316 316 314 314 313 312 312 312 312 313 315 316 316 317 317 317
349 349 350 350 350 350 349 347 343 340 337 336 335 336 337 338 340 341 341 342 343 343 342 341 341 340 339 339 340 341 340 336 332 329 325 324 326 327 325 324 324 325 326 329 332 333 332 331 331 332 333 333 334 333 332 331 330 330 329 328 325 323 321 321 322 322 319 316 314 314 313 311 313 312 310 311 312 310 309 310 311 311 311 311 311
349 349 350 350 350 350 349 347 343 340 338 336 335 336 337 338 339 340 341 342 343 344 344 343 342 341 340 340 340 341 342 341 339 337 332 328 327 328 326 325 325 325 324 327 331 333 333 332 331 331 332 333 333 332 331 330 329 329 327 324 321 319 318 320 319 317 315 313 311 310 309 309 311 310 309 311 312 310 307 306 305 305 306 306 307
350 350 350 350 351 350 350 348 345 343 341 338 335 337 338 339 340 341 342 343 342 343 345 344 344 343 342 341 341 342 342 342 342 342 339 336 332 329 327 327 326 325 325 327 330 332 333 333 332 333 333 333 333 331 330 330 329 327 324 321 319 318 317 317 315 314 313 313 310 309 309 308 308 308 308 310 311 308 305 303 304 304 306 308 308
350 352 352 351 350 351 351 349 348 348 347 341 335 336 337 339 341 343 345 345 344 343 344 345 345 344 343 342 342 343 343 343 343 343 342 341 336 330 328 328 327 326 327 328 329 331 333 333 334 334 333 332 331 330 330 330 328 324 321 318 317 317 316 315 314 313 314 314 311 310 309 307 308 308 307 307 308 306 303 304 306 306 307 308 309
350 351 352 352 352 352 352 351 350 350 350 345 339 338 339 340 342 344 346 347 346 345 345 345 345 345 344 343 343 344 344 344 344 344 343 342 337 331 329 328 328 328 329 329 329 331 332 333 334 334 332 330 330 330 330 329 325 321 318 317 317 317 315 314 315 314 314 313 311 309 308 308 309 309 308 307 306 305 306 306 307 306 306 306 306
350 351 352 353 354 354 353 351 351 351 351 349 345 344 344 344 344 345 346 348 348 347 346 346 346 346 345 344 344 345 345 345 346 346 344 342 337 331 329 330 330 331 331 329 328 330 332 334 334 333 332 330 330 330 329 326 321 319 317 316 315 315 314 315 316 315 313 312 310 308 307 308 309 310 310 309 308 309 310 308 305 305 305 305 305
351 352 353 354 356 356 354 354 354 352 352 352 350 350 350 349 348 348 348 349 349 348 348 348 348 347 346 345 346 346 346 347 347 346 344 342 338 331 329 332 332 332 332 329 327 330 333 334 334 333 332 331 331 330 327 322 319 318 317 315 313 312 313 315 315 313 312 313 311 308 306 307 309 310 310 310 310 311 310 309 307 305 305 306 306
Wind_Speed
7 7 7 7 5 5 4 3 2 2 1 1 0 0 1 1 1 2 2 2 2 4 5 5 3 1 2 3 4 4 4 6 6 4 3 3 4 4 2 2 2 2 3 5 6 6 6 6 7 7 6 6 7 7 7 6 6 5 5 5 5 5 5 5 5 4 4 4 4 4 4 3 2 2 2 3 3 3 3 3 4 3 3 3 3
8 8 7 7 6 5 4 3 2 2 1 1 0 1 1 2 3 3 3 3 3 4 5 5 4 3 3 3 3 4 4 5 6 5 3 3 3 3 2 2 1 1 2 4 6 6 6 7 7 7 7 7 7 7 6 6 7 7 6 6 6 6 6 6 6 5 5 5 5 5 5 5 4 3 3 3 4 4 4 4 4 4 5 5 5
9 8 7 7 6 6 4 3 1 1 2 2 2 2 3 3 4 4 4 4 5 5 5 5 4 4 4 3 3 4 5 5 6 5 3 2 3 3 2 2 2 1 0 3 6 7 7 7 8 7 8 7 7 7 6 6 7 7 7 7 6 6 7 7 7 7 6 6 5 6 6 6 6 5 4 4 4 5 5 5 5 6 6 6 6
9 9 8 7 6 6 5 3 1 1 2 2 3 4 4 3 4 4 4 5 5 5 6 6 6 5 4 3 3 3 4 5 5 4 3 2 3 4 3 3 3 3 2 0 3 7 7 7 7 7 7 7 7 7 7 7 7 7 8 8 8 8 7 7 8 8 7 7 7 7 8 7 7 7 6 6 6 6 6 7 7 7 7 7 7
9 9 9 7 7 6 5 3 2 2 2 3 3 4 4 4 4 4 5 5 5 5 6 6 7 5 4 4 4 3 4 5 4 4 4 3 3 5 5 4 5 5 5 4 2 4 6 6 6 6 7 7 7 8 8 8 8 8 9 9 9 9 9 9 9 8 8 8 8 8 9 9 9 9 9 9 8 8 8 8 8 9 9 9 9
10 10 9 8 7 6 4 2 2 3 3 3 3 4 5 5 5 5 5 5 5 5 5 6 6 4 3 4 3 2 2 3 3 3 4 4 3 3 4 5 5 4 4 4 3 3 3 4 5 6 7 7 7 9 9 9 10 10 9 10 10 11 11 11 10 9 10 10 9 9 10 9 9 9 10 10 10 10 10 10 10 10 10 10 10
11 11 10 9 8 7 4 3 3 4 4 4 4 4 5 5 4 5 5 5 6 6 5 5 5 4 3 2 2 2 1 2 3 4 4 3 4 4 5 5 5 5 4 4 3 4 2 1 3 5 6 6 7 9 9 11 11 11 11 10 10 12 12 12 11 10 11 11 11 11 10 10 10 10 10 10 10 10 10 11 11 11 11 11 11
12 12 11 10 9 7 5 4 4 4 5 5 5 5 4 4 4 5 5 6 6 5 5 6 5 5 4 2 1 3 1 1 2 4 3 3 5 6 5 3 3 4 4 4 4 4 3 1 1 2 4 5 7 9 10 11 11 10 11 10 10 11 13 12 12 11 12 12 12 11 11 11 11 11 12 12 11 11 10 10 11 11 12 12 11
13 12 11 10 9 6 5 5 5 5 5 6 6 6 5 5 5 5 6 7 7 4 4 6 6 6 6 3 2 3 3 2 2 3 3 4 6 8 7 5 2 1 3 4 4 5 3 2 0 1 1 2 4 7 10 11 9 8 9 9 10 12 13 13 12 12 12 12 12 11 11 12 12 12 12 13 12 12 11 11 12 12 12 12 12
13 12 11 10 8 7 6 7 7 7 7 7 7 7 7 7 6 6 7 8 8 5 5 7 7 7 6 5 4 3 4 2 2 3 2 2 5 8 8 7 5 3 2 3 4 4 4 2 1 1 2 3 3 5 7 8 6 6 7 8 10 12 12 13 12 12 12 12 13 12 12 12 12 12 13 14 13 13 12 13 13 13 14 14 14
13 13 11 10 9 8 7 8 9 9 8 8 7 7 7 7 7 7 7 9 9 8 7 8 8 7 6 5 5 4 4 3 3 3 2 2 3 6 7 7 6 5 4 4 3 3 3 2 1 1 3 3 3 4 4 4 4 5 6 6 8 9 10 10 11 12 13 13 14 14 14 13 13 13 14 14 14 14 14 14 14 14 15 15 16
15 14 12 11 9 9 8 9 9 10 9 8 7 6 7 8 8 8 8 9 10 9 8 8 8 7 5 5 5 4 4 4 4 4 2 1 2 4 5 6 7 6 6 5 4 3 3 2 2 2 2 2 2 3 3 1 2 4 4 5 5 5 6 6 8 10 12 13 13 14 14 14 14 13 13 13 14 14 14 14 14 14 14 15 15
16 15 13 11 10 9 9 9 10 10 10 8 7 7 8 9 9 8 8 9 10 8 8 7 5 3 5 6 5 5 5 4 4 4 2 3 3 3 3 5 7 8 7 6 5 5 4 4 3 3 3 3 3 3 2 1 1 1 1 3 4 3 3 3 5 7 8 9 10 11 12 12 12 12 12 12 13 13 14 14 14 14 14 15 14
17 16 14 12 11 10 10 10 10 10 9 9 8 8 8 9 10 9 8 8 9 8 7 5 0 3 6 6 5 5 5 4 4 2 4 5 4 3 2 4 7 8 8 9 9 9 8 7 5 4 4 3 3 3 3 2 1 2 1 1 2 2 2 2 3 3 4 5 5 7 9 9 9 9 10 11 12 13 13 13 13 13 14 14 14
18 17 15 13 11 11 10 10 9 9 9 9 8 9 9 10 10 9 8 8 8 7 6 3 3 7 8 6 5 5 4 4 3 3 6 5 5 4 2 3 5 7 8 10 10 10 10 9 8 7 5 5 3 3 3 2 2 2 2 1 2 2 2 2 3 2 2 2 2 4 5 6 7 8 9 10 10 11 11 11 11 11 11 12 12
19 18 17 14 12 12 11 10 9 9 9 9 9 9 9 10 10 9 8 7 7 6 6 3 4 8 8 6 6 5 4 3 3 5 5 5 6 5 3 2 3 5 6 7 8 8 9 8 8 7 7 6 5 3 2 1 1 2 2 2 1 1 1 2 2 2 2 2 2 4 5 6 7 8 8 9 10 10 9 9 9 10 10 10 11
20 19 18 16 15 14 13 12 11 10 9 9 9 9 9 10 10 10 9 7 6 6 6 5 5 7 9 8 6 5 4 4 4 6 6 6 7 6 4 3 3 3 4 4 5 6 7 7 7 7 7 7 7 6 4 2 2 3 4 4 3 3 2 1 0 1 1 2 2 3 4 5 6 6 7 7 8 8 8 8 8 8 9 9 10
21 20 19 18 17 16 15 14 12 11 10 10 10 10 10 10 10 10 9 8 7 7 7 6 7 7 9 9 7 5 4 5 5 5 6 7 7 7 6 5 4 3 3 2 3 4 5 5 6 6 6 7 7 8 7 6 6 6 6 6 6 5 5 4 3 2 1 0 1 2 2 3 4 5 6 7 7 8 8 9 9 9 9 9 9
21 20 19 18 18 18 17 16 14 12 11 11 12 12 11 11 11 11 10 10 8 7 7 8 8 8 8 9 8 7 5 5 6 5 6 7 7 8 8 7 6 5 4 3 1 1 2 3 4 4 4 5 6 7 8 8 9 9 9 8 8 8 7 6 5 4 3 2 2 2 2 3 3 4 5 6 7 8 8 9 9 10 10 10 10
22 21 19 18 19 19 18 17 16 14 12 12 12 12 12 12 12 12 12 11 10 7 7 9 9 10 9 9 9 9 7 6 7 6 6 6 7 9 10 9 8 7 6 5 3 2 1 1 2 3 3 3 4 5 5 6 7 7 7 8 8 8 7 6 6 5 4 4 3 3 3 3 3 4 5 5 6 7 7 8 8 9 10 11 11
23 22 20 19 19 19 19 18 17 15 14 13 12 12 12 12 12 12 12 11 10 8 8 9 10 11 11 10 9 9 9 9 9 8 8 7 7 8 10 11 10 10 8 7 6 4 3 2 1 1 1 2 3 4 3 3 4 4 4 5 6 6 6 6 5 4 4 3 3 3 4 4 4 5 5 5 6 6 7 8 8 9 10 10 11
23 23 21 20 20 20 19 19 17 16 15 14 13 13 13 12 12 12 12 11 10 9 9 9 11 12 12 11 10 9 9 9 9 9 10 10 8 7 8 9 10 10 9 9 8 7 6 5 3 2 1 1 2 3 3 3 3 2 2 2 3 3 4 4 4 4 4 3 3 3 4 4 5 5 5 5 6 6 7 8 8 9 10 10 11
23 23 22 21 21 21 20 19 18 17 16 15 14 13 13 13 12 12 12 11 11 11 10 10 11 13 13 13 11 10 9 8 8 8 8 8 9 8 7 8 9 9 9 10 10 9 8 7 6 4 4 3 3 3 3 3 3 2 2 1 1 1 1 2 3 3 3 4 4 4 4 5 6 6 6 6 7 8 8 9 10 10 10 10 11
24 24 23 22 22 22 21 20 20 18 17 17 16 14 14 14 13 13 12 11 11 11 11 10 11 12 13 13 12 11 10 8 7 6 6 6 7 7 7 8 8 9 8 9 10 10 10 10 8 7 7 6 5 5 5 5 4 4 5 4 4 4 3 2 2 2 3 3 4 5 6 6 7 7 8 8 9 10 11 11 12 12 12 12 12
26 25 23 23 23 22 22 21 21 19 18 18 17 15 15 15 14 13 12 12 12 12 11 11 11 12 12 13 13 12 11 9 7 7 6 6 6 6 7 8 7 7 8 7 9 10 10 10 9 8 8 8 8 7 7 7 6 6 7 7 7 6 5 4 4 4 4 5 5 6 7 7 8 9 9 10 11 11 12 13 13 13 13 13 13
27 25 23 22 22 21 21 21 21 20 19 19 19 17 16 16 15 14 13 13 13 12 12 11 12 12 12 13 13 13 12 11 10 9 8 7 6 6 7 7 6 7 8 7 8 8 9 9 9 9 10 9 9 9 8 7 7 6 7 8 8 8 7 7 7 7 7 7 7 8 9 9 9 10 11 11 12 12 12 13 13 13 13 13 14
27 25 24 22 22 21 21 21 21 21 20 21 20 18 17 17 16 15 14 14 14 14 13 13 13 12 12 12 12 12 12 12 11 10 9 9 8 7 7 6 6 7 7 7 8 8 8 9 9 9 10 10 10 11 10 8 7 7 7 7 8 8 8 8 9 8 8 8 9 9 10 10 11 11 12 13 13 14 14 14 14 14 14 15 15
26 26 25 23 23 22 21 20 20 21 21 22 21 19 18 17 17 16 15 15 15 15 14 14 13 12 11 11 11 12 12 12 12 11 10 9 9 9 8 8 7 7 6 7 8 7 7 7 8 8 8 9 10 10 9 8 8 7 7 6 6 7 8 9 9 8 8 8 9 10 11 12 12 13 14 15 16 17 17 17 17 16 16 16 16
26 25 25 24 23 23 22 21 21 21 22 23 22 20 19 18 18 17 16 16 16 15 15 15 13 12 11 11 11 11 12 12 13 12 10 9 8 9 9 10 9 8 7 7 7 7 7 7 7 8 8 8 7 8 7 7 7 7 6 6 7 8 8 8 8 8 7 9 10 12 13 13 14 15 16 17 18 19 19 20 19 19 19 19 18
26 26 26 25 25 24 23 23 22 22 23 23 22 21 20 20 19 18 17 17 17 17 16 16 15 13 12 11 10 11 12 12 13 12 10 9 8 9 10 11 11 10 9 9 9 9 9 8 7 8 9 8 7 6 6 6 6 6 6 6 7 8 8 8 8 8 9 10 12 13 14 14 15 16 17 18 19 20 20 21 21 21 22 22 22
28 28 27 27 27 26 25 24 24 23 23 23 22 22 21 21 21 20 19 19 19 19 18 18 16 15 13 12 11 11 11 12 13 13 11 10 10 10 11 11 12 11 11 11 11 12 11 11 10 10 9 8 7 6 6 6 6 6 6 6 7 7 8 9 9 9 10 12 14 16 16 16 17 18 19 20 20 21 22 22 22 23 23 24 24
30 30 29 29 29 28 27 26 25 25 25 23 23 22 22 22 22 21 21 20 20 20 20 19 19 17 15 13 12 11 11 12 13 13 13 12 11 11 11 12 12 12 11 11 12 13 13 13 12 11 8 7 6 6 6 7 7 7 7 7 7 8 9 9 10 10 12 14 17 18 18 19 20 20 21 21 21 21 22 22 23 23 23 24 24
31 31 32 32 31 30 29 28 27 27 26 24 24 23 23 23 23 23 23 22 22 22 21 21 21 19 17 15 13 12 11 12 13 14 14 13 12 12 13 13 13 12 11 11 11 12 13 12 11 10 8 7 7 6 7 7 8 8 8 8 8 9 10 11 12 13 14 17 19 20 21 21 21 21 21 21 21 21 21 21 22 22 22 23 22
32 32 32 33 34 33 32 30 29 28 27 26 25 25 25 25 24 25 25 25 24 23 23 23 23 22 19 17 15 14 13 13 14 14 15 14 13 13 13 14 14 13 12 11 11 12 13 12 10 9 8 7 6 7 7 8 8 8 8 9 9 10 12 13 14 15 17 19 21 22 23 22 21 19 19 19 20 20 20 20 20 20 21 21 22
33 33 33 34 35 35 34 33 31 30 29 27 27 26 26 26 25 26 27 27 26 25 25 24 24 23 21 19 18 16 15 14 14 15 16 16 15 14 14 14 14 14 13 13 13 13 13 12 11 10 9 8 7 7 8 9 10 9 9 10 12 12 13 14 15 17 19 21 23 23 23 22 20 18 18 18 19 20 21 21 21 21 22 22 22
35 34 33 34 35 37 37 36 34 32 31 29 29 28 27 27 27 27 28 28 27 26 25 24 24 23 23 22 20 19 17 16 15 15 15 16 16 15 14 14 14 14 14 14 14 13 13 13 12 11 10 9 8 8 9 10 10 11 11 12 13 14 14 15 16 17 20 22 23 22 21 19 18 18 18 19 19 21 22 22 23 23 23 23 23
37 35 34 34 35 37 39 39 37 34 33 31 30 30 29 28 28 28 29 28 28 27 26 25 24 23 23 23 22 21 19 18 17 16 15 15 16 16 15 15 15 15 15 14 14 14 14 14 14 12 11 11 10 10 10 10 11 11 13 14 15 14 15 16 18 20 21 22 22 21 19 18 19 19 19 19 20 21 22 23 23 22 22 23 23
39 37 35 35 36 37 39 40 40 38 35 33 32 31 30 30 29 30 30 30 29 28 27 26 25 24 24 24 23 22 20 19 18 16 15 15 15 16 16 15 15 15 15 14 14 14 15 15 15 15 14 12 12 12 12 11 12 13 15 17 18 18 18 18 20 22 24 23 22 20 19 19 20 20 19 19 19 20 21 21 22 22 23 23 24
40 38 37 37 37 38 38 39 41 40 38 36 34 33 32 31 31 31 31 31 30 30 29 27 27 26 25 24 24 22 21 19 18 16 15 15 15 16 16 16 16 16 16 15 15 15 16 17 16 16 15 14 14 14 14 14 15 16 17 19 20 22 22 21 22 23 24 23 22 21 21 21 21 21 21 20 20 20 21 21 22 22 23 25 26
40 39 37 37 38 38 39 39 40 41 41 39 37 35 34 33 32 32 32 32 32 31 30 29 28 28 27 26 25 23 21 19 18 17 16 16 16 17 17 17 17 17 17 16 16 17 17 18 17 16 16 16 16 16 16 16 17 18 19 20 21 22 22 23 24 24 23 21 21 21 22 22 22 23 22 22 22 21 21 22 21 20 20 20 21
40 39 37 38 38 39 39 39 40 41 42 42 41 39 37 36 35 34 33 33 33 33 31 30 29 29 29 28 26 24 21 19 18 18 19 19 19 19 19 18 18 19 18 17 18 18 18 18 17 15 15 16 16 16 17 17 17 18 20 20 20 21 22 23 25 24 22 21 21 22 22 22 23 24 23 22 21 20 20 20 19 18 17 16 15
40 39 38 38 39 40 40 40 41 42 43 44 43 41 39 37 36 36 35 34 34 34 33 31 31 30 30 29 27 24 22 20 20 22 23 23 22 21 20 19 19 19 19 18 19 18 18 18 16 15 15 15 16 17 17 16 17 18 18 19 19 20 22 23 23 22 21 21 23 25 25 24 23 23 23 21 20 19 19 18 17 17 17 17 16
41 40 39 40 40 40 41 41 42 43 45 45 43 42 41 38 37 37 37 35 35 35 34 33 32 31 30 30 28 25 24 23 24 26 26 25 24 22 21 20 20 19 18 18 18 18 17 17 17 16 16 16 18 18 16 15 16 17 17 17 19 20 21 21 20 18 18 21 24 25 26 25 23 22 22 21 20 19 18 17 16 17 17 17 17
43 42 41 40 41 41 42 42 43 45 46 46 44 43 42 39 38 39 38 37 36 36 35 34 32 31 31 31 29 28 27 27 27 28 28 27 25 23 22 21 20 19 18 18 18 18 17 17 18 18 18 17 17 16 14 14 15 16 16 18 19 19 18 18 17 15 17 22 24 23 24 25 23 22 22 22 20 20 19 18 18 18 19 19 20
44 44 43 42 41 42 43 44 45 45 46 46 45 44 43 40 39 40 40 39 38 37 36 34 33 32 32 32 32 31 30 29 30 30 29 28 26 23 22 21 20 19 19 18 18 18 17 18 18 18 18 17 15 15 15 15 15 15 17 18 18 18 17 16 15 16 19 21 21 20 22 23 21 21 22 22 21 21 21 21 20 20 20 21 21
46 47 46 43 42 43 44 45 46 46 46 47 46 45 44 41 40 40 40 40 39 38 37 35 33 33 33 34 34 33 32 32 33 32 30 29 28 25 23 22 21 20 20 19 18 17 18 19 18 18 18 18 17 17 17 15 15 15 16 17 17 18 18 17 18 20 20 18 17 19 21 21 19 21 22 20 19 21 22 22 20 18 17 16 16
49 49 48 46 44 44 45 45 45 45 46 47 47 46 44 42 41 41 41 41 40 39 39 37 35 34 34 35 35 35 34 34 35 34 31 29 28 27 25 23 22 22 21 19 17 17 18 18 18 17 18 18 17 17 16 15 15 15 15 16 17 18 19 19 19 18 16 16 17 19 20 21 19 19 20 18 18 20 20 18 16 13 13 13 13
49 49 49 48 47 46 45 45 45 45 46 47 48 47 45 43 42 41 41 41 40 40 40 38 37 36 35 36 37 37 37 37 36 35 32 29 28 29 27 24 22 22 21 19 17 16 17 18 18 17 17 17 16 16 15 15 15 14 14 16 17 17 16 15 14 12 12 15 18 18 20 21 18 17 18 18 18 19 18 15 13 13 13 13 13
50 50 50 49 48 48 48 46 46 46 46 47 47 45 44 43 42 43 43 42 41 41 41 40 39 37 36 37 39 39 39 39 37 35 33 29 28 29 27 24 23 22 21 19 17 17 18 18 19 18 17 17 16 15 15 14 13 13 14 15 14 13 11 10 10 11 11 13 16 17 19 19 17 16 17 18 19 19 16 14 14 15 15 16 16
49 50 50 47 41 43 49 49 47 47 46 45 45 43 42 42 43 43 43 42 41 41 42 42 40 38 38 38 40 41 41 40 37 35 32 29 28 29 27 25 25 24 22 20 19 18 19 19 19 18 17 17 16 15 15 14 13 12 13 13 11 8 7 7 9 12 13 12 14 16 17 17 16 15 16 18 19 16 14 16 19 19 20 21 21
50 49 49 43 36 39 46 46 45 47 47 45 45 44 42 41 42 43 43 42 42 42 43 42 41 39 40 41 41 42 41 40 37 34 31 29 30 30 28 26 26 24 22 21 20 19 19 19 18 17 17 16 15 15 14 13 12 12 11 11 9 7 7 8 9 12 13 11 13 16 17 15 15 14 14 16 17 16 16 19 22 24 24 23 22
Wind_Direction
189 183 174 173 175 166 163 156 145 131 137 132 110 223 251 264 287 304 317 309 303 314 316 318 299 270 339 1 25 31 36 27 8 348 335 338 344 336 302 261 266 262 247 237 232 216 206 211 211 215 212 210 209 207 210 205 201 200 198 204 205 209 216 227 235 232 229 227 229 226 225 233 230 230 237 239 247 246 242 248 248 252 263 272 287
192 186 178 181 183 172 165 150 120 92 69 355 320 285 280 281 294 308 325 324 305 308 312 306 283 281 323 337 4 12 11 14 3 348 325 309 325 323 293 274 291 293 272 247 241 228 218 218 216 222 220 214 217 216 213 212 214 210 205 210 213 214 214 219 226 232 237 233 235 237 232 235 240 241 239 240 246 250 250 252 256 260 268 276 284
197 194 186 188 193 191 189 176 139 66 31 8 347 320 301 293 299 309 322 330 321 312 307 291 267 277 307 314 341 2 2 357 351 346 333 330 338 315 276 270 289 299 285 230 236 234 228 227 218 222 230 226 225 226 220 218 223 225 221 217 219 223 221 221 225 227 231 233 236 239 239 238 241 243 240 242 246 248 252 254 257 261 267 275 281
204 203 199 200 208 210 214 211 216 303 346 348 338 331 320 310 308 311 319 328 326 312 300 279 256 268 291 298 307 333 357 351 343 346 345 349 338 321 298 277 298 317 338 9 244 245 238 237 230 225 232 236 234 234 231 228 229 230 231 229 226 231 233 231 230 229 229 231 235 236 238 240 242 244 243 243 244 245 250 254 260 263 266 269 273
210 211 211 216 219 218 219 225 246 278 309 322 328 330 326 322 312 310 316 318 318 306 292 273 257 262 279 290 290 306 354 352 344 348 342 345 338 327 316 296 307 325 346 22 13 277 252 244 245 239 235 236 237 242 241 237 235 231 231 232 230 234 238 239 235 233 236 235 237 243 243 243 242 241 242 243 243 244 246 251 257 262 265 269 271
216 218 223 228 227 224 221 234 277 282 298 311 311 312 313 313 308 308 314 316 315 306 290 275 265 260 272 291 279 276 345 348 344 341 332 344 355 327 304 287 293 307 327 357 24 3 285 251 246 243 239 235 235 241 243 239 235 233 232 229 228 233 238 242 239 235 241 240 239 244 246 249 251 250 249 247 245 247 249 253 257 259 263 266 270
219 223 229 235 236 236 234 243 278 289 298 305 301 302 304 304 307 309 314 317 316 310 295 281 271 261 265 302 263 231 308 349 350 342 337 0 15 348 308 277 268 287 315 328 353 25 27 281 244 242 242 239 236 238 240 239 235 232 235 231 226 231 236 241 244 241 245 246 245 246 247 249 253 257 259 256 253 254 255 257 260 262 263 264 267
221 226 231 237 240 240 240 245 265 285 294 298 292 287 286 289 307 317 320 320 315 313 300 286 271 251 241 279 233 213 272 336 328 345 6 23 22 19 0 316 264 273 310 325 333 358 24 29 258 246 251 246 244 243 243 243 240 237 242 244 239 238 240 241 242 243 246 250 252 253 255 254 252 253 257 260 261 264 265 264 265 266 267 267 267
224 228 231 234 235 237 240 247 257 273 283 289 286 276 271 277 296 316 324 322 318 317 302 292 284 259 246 255 206 214 282 295 294 349 18 22 29 47 52 44 42 317 322 329 329 335 342 331 276 245 286 274 263 256 252 251 247 240 244 249 249 247 246 246 246 248 250 253 256 256 255 257 259 260 260 260 261 265 270 272 271 271 271 271 272
226 227 229 231 235 238 244 251 255 264 274 282 283 273 269 275 288 307 318 321 321 319 301 295 295 283 266 247 213 250 292 261 272 342 350 6 48 64 64 62 62 50 20 355 335 329 325 306 272 263 296 305 293 275 264 263 259 249 250 253 252 251 250 253 257 258 258 258 259 256 253 256 263 267 268 267 265 265 267 270 273 275 277 278 277
226 228 230 233 239 245 249 256 257 262 268 276 281 273 271 276 280 295 309 319 322 315 300 294 293 292 280 240 220 263 275 231 278 332 316 322 67 71 56 59 58 49 38 21 6 352 347 337 318 299 296 294 291 296 289 278 273 263 262 260 256 257 257 260 260 260 261 261 260 260 258 260 263 265 268 271 271 270 268 267 269 273 277 279 279
227 230 232 235 240 247 253 255 257 260 264 272 278 272 269 269 268 281 301 316 320 312 300 298 297 287 262 228 216 238 239 232 290 326 296 246 102 74 49 50 49 39 24 12 14 14 13 21 25 17 354 340 325 318 320 315 288 277 277 274 261 257 259 259 255 254 256 257 260 263 264 264 265 265 267 270 272 273 273 271 269 270 271 272 275
229 232 235 237 241 247 251 253 255 259 264 270 271 266 261 262 265 277 299 316 319 310 301 306 309 270 221 208 208 218 229 245 293 310 230 180 138 88 45 41 43 38 31 30 37 43 49 53 44 35 28 28 32 19 21 27 301 295 297 288 279 268 264 258 252 251 255 257 259 263 264 263 266 270 272 273 273 275 276 275 273 273 270 269 269
231 234 235 238 242 247 249 251 256 261 266 270 269 266 261 262 270 280 299 315 315 305 300 311 330 174 175 179 193 213 230 256 292 265 181 168 148 122 61 38 44 44 52 59 58 59 60 61 58 50 42 36 32 28 31 31 14 49 77 307 309 304 289 282 271 261 258 259 255 257 261 264 268 272 275 275 275 277 278 278 278 278 275 272 270
234 236 237 238 242 246 247 250 257 263 270 272 270 268 264 265 273 281 296 309 310 300 294 291 168 167 168 170 179 203 232 257 268 190 172 173 164 146 109 69 56 54 65 68 62 59 58 58 58 55 50 43 38 35 23 17 23 45 60 33 353 340 336 322 305 294 283 274 264 262 269 274 275 273 274 278 281 283 283 284 284 284 281 279 277
236 238 239 239 239 243 246 250 258 266 270 271 270 268 265 266 271 277 290 302 301 294 283 255 186 172 177 183 184 201 225 233 215 187 183 191 184 168 148 134 92 75 74 66 59 54 53 58 60 57 55 51 47 50 44 26 20 41 55 51 35 18 353 326 307 304 305 301 288 281 281 281 281 280 281 284 288 291 293 292 289 287 286 286 284
236 239 241 240 238 240 245 252 258 266 268 269 270 269 265 265 270 274 284 292 285 278 272 244 205 188 190 190 186 204 217 209 206 202 203 206 200 188 175 170 143 112 94 66 58 53 48 53 57 57 57 56 53 55 60 61 48 47 52 54 59 59 57 46 334 293 289 289 283 276 277 281 286 291 294 296 298 301 305 306 301 298 295 292 289
237 239 241 242 239 239 244 251 256 262 267 269 269 268 266 268 272 274 279 285 276 265 262 243 219 207 205 201 198 202 204 206 212 214 218 221 220 215 203 194 187 166 146 110 64 56 51 48 49 50 58 61 58 59 66 74 75 71 67 66 67 66 66 72 82 97 105 342 315 310 308 308 306 305 306 307 307 308 310 312 313 313 311 307 303
238 240 242 243 241 240 243 249 254 258 264 269 269 268 267 267 271 273 275 278 272 258 252 242 226 218 218 218 220 221 216 214 215 219 232 234 232 230 224 214 209 205 191 182 176 76 69 59 48 45 61 74 72 71 74 80 83 80 76 73 71 69 67 68 70 75 78 80 65 26 355 338 325 317 312 307 305 305 304 304 306 308 309 309 308
240 242 244 245 243 241 242 247 252 254 260 266 270 268 264 265 268 271 275 276 272 261 249 242 230 225 228 228 234 238 237 236 231 230 239 245 242 237 233 230 227 228 222 214 219 227 192 103 68 46 60 85 95 96 89 89 87 82 79 73 67 63 61 62 61 61 62 62 60 49 31 10 352 338 327 319 313 309 306 305 304 303 304 305 305
241 244 245 246 245 242 241 245 249 253 258 262 267 268 263 264 268 271 274 274 270 263 256 249 236 230 236 238 242 245 242 246 249 247 248 250 251 244 239 238 236 238 237 236 244 250 241 217 159 87 87 104 118 124 120 114 104 95 88 73 60 51 47 49 49 49 49 43 34 21 10 1 353 346 337 330 324 319 316 312 310 308 306 306 306
241 244 244 246 245 242 241 243 247 250 254 257 261 264 262 264 268 268 269 270 268 263 260 256 242 236 241 245 247 248 246 249 253 257 258 258 260 256 247 242 243 249 248 246 251 252 247 240 231 214 209 200 164 152 146 147 144 137 125 84 55 39 33 36 36 35 32 23 12 0 352 344 338 332 327 323 318 315 314 312 311 310 308 308 307
241 242 242 242 242 241 241 243 246 248 251 253 255 258 260 261 264 263 262 265 266 262 257 255 248 243 244 250 252 249 246 249 254 259 257 254 259 260 256 252 256 264 261 251 248 249 251 251 247 240 243 247 234 216 198 184 189 203 217 240 282 315 349 15 16 18 14 8 1 350 343 335 328 323 320 315 312 310 309 308 308 306 306 306 305
237 238 238 237 239 241 242 244 246 247 248 249 250 252 255 256 258 258 258 260 260 257 255 253 251 248 248 252 253 247 244 247 254 259 249 242 251 259 263 267 271 275 272 260 255 254 253 253 252 250 252 257 260 257 247 234 231 239 250 259 266 271 268 278 301 313 326 333 334 333 330 328 325 323 322 320 318 316 313 311 309 308 307 305 304
233 235 236 236 238 240 243 245 246 248 249 248 247 246 249 252 254 254 254 256 256 254 254 254 252 248 246 249 248 244 245 247 249 254 253 250 253 254 263 271 274 277 279 272 270 271 265 260 259 261 263 264 268 273 271 260 254 253 259 266 271 277 278 278 281 287 293 297 302 306 307 309 310 310 311 312 313 313 313 312 311 309 308 305 303
234 235 237 239 241 242 244 246 247 248 249 247 244 243 244 247 249 249 250 251 251 249 249 249 246 241 239 243 244 243 244 246 249 251 252 256 255 250 260 269 269 273 279 279 278 280 279 276 274 275 277 277 275 279 280 272 264 264 268 271 275 280 282 282 284 289 291 293 293 293 295 298 298 299 298 298 299 300 301 303 303 303 302 302 300
235 236 238 239 241 243 245 245 245 246 246 242 239 240 241 244 246 245 245 245 244 242 242 242 239 234 234 239 243 246 246 246 249 252 253 256 255 249 251 258 265 274 279 282 283 280 281 284 284 284 284 283 282 280 281 279 275 277 280 278 276 275 277 278 280 282 288 295 297 298 298 297 296 295 294 292 291 290 289 289 289 290 290 292 292
235 237 238 238 239 242 244 245 245 245 243 238 236 238 240 242 243 242 241 242 240 238 236 235 233 230 231 236 242 248 250 247 246 249 253 257 255 251 249 251 264 280 282 282 284 285 290 292 291 296 294 287 284 282 280 281 284 289 288 279 269 264 266 270 270 272 282 292 298 300 299 297 296 294 292 291 290 288 287 285 283 282 281 282 284
236 237 237 237 237 239 242 243 243 243 241 236 234 237 238 240 241 238 238 240 239 237 235 233 230 227 228 233 239 245 248 246 245 247 250 252 249 248 252 256 265 277 281 282 286 288 296 301 297 304 308 298 286 281 280 281 286 290 285 274 266 262 262 261 260 263 272 284 295 301 301 299 297 296 294 291 288 285 284 283 282 281 280 281 282
234 235 237 238 237 238 239 240 240 240 239 236 235 237 238 238 238 235 234 235 236 234 232 231 229 226 226 228 234 243 248 249 249 249 250 249 245 245 250 255 261 270 276 283 289 291 297 304 303 306 312 306 291 280 278 281 284 280 274 269 266 264 264 264 267 269 275 287 299 304 302 298 295 294 293 292 288 285 281 279 278 279 280 282 284
233 233 235 237 237 236 236 237 238 237 236 236 236 238 238 236 235 232 231 231 232 231 229 229 229 227 226 226 229 238 246 250 252 252 252 252 250 249 249 252 257 266 274 280 286 292 300 306 305 307 310 302 287 276 275 276 272 266 267 270 272 275 279 281 283 285 290 297 302 304 303 300 297 294 292 291 287 283 279 277 276 276 279 281 283
234 233 234 236 237 236 235 235 234 234 233 234 236 237 237 235 233 231 229 229 231 231 229 228 228 227 227 227 228 234 243 250 252 252 253 254 255 255 253 253 257 262 271 278 284 292 301 305 303 303 305 293 276 265 263 262 258 262 268 272 278 291 296 296 296 296 299 304 307 307 307 305 303 300 295 291 286 280 276 274 274 275 277 279 280
236 234 233 233 235 235 235 233 232 232 232 233 236 236 236 234 232 230 229 228 230 231 230 229 229 227 227 228 230 234 241 249 252 251 251 252 256 258 258 259 262 265 270 276 282 288 297 302 300 295 294 289 273 256 250 251 254 263 269 273 285 297 299 298 297 298 303 309 312 311 310 308 305 301 295 290 285 280 276 274 274 274 275 276 276
237 235 234 233 233 234 234 233 231 230 230 232 235 236 235 234 231 230 229 228 229 230 230 229 229 228 228 228 232 235 240 248 252 252 251 251 253 258 262 264 266 270 273 277 283 287 292 297 295 288 287 289 275 255 246 248 260 270 273 280 293 297 297 297 299 302 309 314 315 313 311 310 308 303 295 289 283 280 278 277 275 275 274 273 271
238 236 234 232 232 232 233 233 231 229 229 230 233 235 234 233 232 230 229 229 229 230 230 229 229 229 228 228 231 234 237 244 250 253 252 252 252 257 264 268 270 273 276 281 286 288 290 292 291 286 286 286 277 264 256 257 266 275 283 293 299 298 298 299 302 307 313 315 313 311 309 309 309 306 298 289 282 277 276 276 277 277 277 273 268
239 237 235 233 232 232 232 232 230 229 228 228 231 234 234 233 231 230 230 231 231 230 231 230 230 230 229 228 230 233 236 241 248 252 254 254 254 257 265 271 273 275 277 280 283 285 286 288 290 290 287 283 279 275 272 269 270 278 289 299 300 300 302 303 304 308 311 312 311 308 307 307 308 306 300 293 285 280 278 278 278 279 278 275 272
239 237 236 235 233 232 231 231 230 229 229 228 229 232 234 233 231 230 231 231 232 232 232 232 232 232 231 229 230 232 235 239 244 250 254 257 258 259 264 271 275 276 277 277 277 277 278 281 287 289 287 284 283 281 281 281 283 290 297 300 299 300 304 307 308 310 312 313 311 308 306 306 307 305 300 296 290 286 283 283 283 283 281 280 278
240 238 236 235 234 233 232 231 230 229 229 229 229 231 233 234 232 231 231 232 233 234 233 232 233 233 232 231 231 232 234 237 241 246 252 257 259 260 263 269 274 276 275 272 270 271 274 279 283 285 283 282 282 283 285 289 294 297 302 304 305 305 305 307 310 314 316 316 313 309 308 309 309 307 304 300 295 291 288 287 287 287 286 285 284
241 239 236 235 235 234 234 233 231 231 230 229 230 230 232 233 232 232 232 233 234 235 233 232 232 233 233 233 233 233 234 236 239 243 247 252 255 258 261 264 268 272 272 270 269 271 274 278 281 280 278 276 276 280 284 291 295 295 299 304 305 304 303 304 308 312 314 313 311 308 308 308 307 307 306 303 299 295 290 287 286 286 285 284 283
241 239 237 236 236 236 236 234 233 232 231 230 229 229 230 232 232 232 233 234 235 235 234 232 231 232 232 233 234 234 234 236 237 240 244 248 250 252 254 256 260 265 267 268 269 271 274 276 277 276 274 272 272 275 281 287 291 292 295 298 297 297 298 302 307 310 310 308 307 306 306 307 307 307 306 304 301 298 294 293 293 292 289 287 285
240 240 238 237 236 236 237 236 235 234 232 230 229 228 228 229 231 231 232 234 235 236 235 233 231 231 232 233 234 233 235 236 234 236 241 245 247 248 249 248 251 256 262 266 267 268 272 275 275 273 272 271 270 271 276 281 284 288 291 293 293 295 299 303 306 309 309 309 308 306 305 307 308 307 307 307 305 303 302 304 305 305 303 301 296
240 240 238 237 236 236 237 237 236 235 233 231 229 228 228 228 230 231 231 232 234 235 235 233 231 231 232 233 234 233 235 234 231 232 237 241 244 247 248 246 246 250 256 261 264 265 269 272 272 271 272 272 273 274 276 279 284 288 289 291 296 300 303 305 308 310 310 310 310 308 308 309 309 308 308 310 312 313 312 312 311 309 306 303 298
240 239 238 236 236 236 236 236 236 236 234 232 229 229 228 227 229 231 231 231 233 235 235 233 231 230 231 233 233 233 233 232 231 233 235 239 242 245 248 247 245 246 250 255 260 263 266 267 267 268 269 270 273 277 277 279 284 286 287 293 299 302 303 305 307 310 309 308 309 309 310 313 313 311 311 313 315 316 314 312 309 305 301 296 292
240 239 238 236 236 236 236 236 236 236 235 233 231 230 229 227 227 230 232 232 232 234 235 233 231 230 231 232 232 232 233 233 235 235 235 237 242 244 248 249 245 244 247 250 256 261 263 262 263 266 267 268 272 275 275 277 281 285 289 296 299 300 301 303 304 303 303 307 311 312 313 318 319 317 316 316 315 314 310 308 305 300 296 291 287
239 239 238 236 236 236 236 236 236 237 236 234 232 232 231 228 228 230 232 232 232 233 235 234 232 230 230 231 231 232 232 234 236 236 234 235 239 243 245 245 242 243 245 246 250 256 258 259 260 262 264 266 269 272 274 277 281 287 292 297 298 299 300 300 299 301 305 310 313 313 317 322 321 317 317 315 313 311 309 306 304 300 296 292 288
238 239 239 237 236 236 237 237 236 237 237 236 234 234 233 230 230 230 232 233 233 233 234 234 232 231 230 230 231 231 231 233 236 236 233 233 236 238 239 238 239 243 244 242 243 248 252 256 257 259 262 265 267 269 274 277 282 289 293 294 296 297 298 298 299 305 311 314 314 314 317 320 318 314 315 314 310 310 310 311 310 308 304 301 298
239 239 239 238 237 236 237 238 238 238 239 238 236 235 234 232 232 232 233 234 233 233 233 233 232 231 230 230 231 232 231 233 236 237 236 234 234 234 233 235 238 240 241 239 238 243 249 254 255 256 260 263 263 266 272 278 284 289 291 292 294 296 298 300 304 311 316 315 315 315 314 317 318 314 313 312 309 309 314 319 322 323 320 318 315
240 239 239 239 238 238 239 240 240 240 241 240 238 236 235 234 234 233 234 234 233 233 233 232 231 231 229 229 231 232 232 233 235 238 238 236 234 231 230 231 233 235 236 235 234 238 244 248 248 249 255 259 260 264 271 279 285 287 290 295 296 297 299 301 306 315 317 312 314 316 314 317 320 316 313 313 311 314 323 330 331 329 327 324 321
240 239 240 240 239 239 239 240 241 241 242 242 241 239 238 237 236 234 234 234 232 232 232 232 231 230 228 228 230 232 233 233 235 238 237 235 234 230 226 226 228 229 231 230 227 231 238 241 243 247 254 257 259 265 274 279 283 286 292 296 295 293 295 299 305 311 312 310 312 314 314 316 318 316 315 316 317 321 328 331 329 327 327 327 324
240 240 241 241 239 238 239 240 241 241 243 245 245 244 242 241 239 237 235 234 233 232 232 232 232 230 229 229 231 233 235 235 238 240 238 235 232 228 224 226 228 227 228 227 223 226 232 236 242 249 254 258 262 268 273 276 279 285 290 290 284 278 282 292 300 307 314 315 311 311 314 316 316 316 316 318 321 320 318 321 329 332 331 330 329
241 240 240 239 236 238 240 240 240 241 242 245 247 246 244 243 242 240 237 235 234 233 232 231 231 229 229 230 231 234 236 239 241 241 238 234 230 227 227 230 229 227 228 227 224 224 229 235 243 248 251 256 261 265 268 271 276 283 286 281 272 265 278 292 299 307 315 314 307 311 317 316 313 314 314 316 316 314 313 319 325 330 331 332 331